Temperature
20 18 17 18 19 19 20 20 19 20 21 20 19 19 18 19 19 18 18 19 19 19 19 19 19 19 19 18 18 18 18 17 17 17 17 16 16 16 16 16 16 16 16 16
18 18 19 20 20 20 20 19 19 20 21 20 19 19 18 18 18 19 19 19 19 19 19 19 19 19 19 18 18 18 18 17 17 17 16 16 16 16 16 15 15 15 16 16
18 19 21 21 20 20 20 19 19 20 20 20 19 18 18 18 19 19 19 19 19 19 19 19 19 19 19 18 18 18 18 17 17 17 16 16 16 16 15 15 15 15 15 15
19 21 21 21 20 20 19 20 20 20 18 17 18 17 17 17 17 18 18 18 19 19 19 19 19 19 19 19 18 18 17 17 17 17 16 16 16 16 15 15 15 15 15 15
19 21 21 21 21 20 19 20 20 19 18 17 17 17 17 17 17 17 18 18 19 19 19 19 19 19 19 19 18 18 17 17 17 17 16 16 16 16 15 15 15 15 15 15
20 21 21 21 21 21 20 19 18 16 16 16 17 17 17 16 17 18 18 18 19 19 19 19 19 19 19 18 18 18 18 17 17 17 16 16 16 16 16 15 15 15 15 15
20 20 21 21 20 20 19 16 16 16 15 16 17 17 17 18 18 19 19 19 19 19 19 19 19 19 19 18 18 18 18 17 17 17 16 16 16 16 16 16 15 15 15 15
18 18 20 21 20 19 18 17 16 16 16 16 17 17 18 19 20 20 20 19 19 19 19 19 19 19 19 19 18 18 18 17 17 17 17 16 16 16 16 16 16 16 15 15
18 18 20 21 21 20 18 17 16 16 17 16 16 18 19 19 19 19 19 18 18 18 19 19 19 19 19 19 18 18 18 17 17 17 17 16 16 16 16 16 16 16 16 15
19 18 20 21 21 20 19 17 15 16 16 16 17 18 17 18 18 18 18 18 18 19 19 19 19 19 19 19 18 18 18 17 17 17 17 17 16 16 16 16 16 16 16 16
19 18 19 19 19 19 19 18 16 15 15 15 16 17 19 18 18 18 18 19 19 19 19 19 19 19 19 18 18 18 18 17 17 17 17 17 17 16 16 16 16 16 16 16
18 16 17 18 19 19 19 18 16 16 16 15 15 16 19 19 19 19 19 19 19 19 19 19 19 19 19 18 18 18 18 18 17 17 17 17 17 16 16 16 16 16 16 16
18 16 16 17 18 19 19 19 17 16 15 14 15 17 19 19 19 20 19 19 19 19 19 19 19 19 19 18 18 18 18 18 17 17 17 17 17 17 16 16 16 16 16 16
18 16 16 17 17 17 18 19 18 16 15 15 16 17 18 19 18 19 19 19 19 19 19 19 19 19 19 18 18 18 18 18 17 17 17 17 17 17 17 17 16 16 16 16
17 17 17 17 19 19 19 19 19 18 16 16 17 17 18 18 18 19 20 19 19 18 19 19 19 19 19 19 19 18 18 18 18 17 17 17 17 17 17 17 17 16 16 16
16 17 18 18 19 19 19 19 19 19 18 18 18 18 19 19 19 19 19 19 19 18 19 19 19 19 19 19 19 18 18 18 18 17 17 17 17 17 17 17 17 16 16 16
16 16 16 16 18 19 18 19 19 19 19 19 18 18 19 18 18 19 19 19 19 19 19 19 19 19 19 19 19 19 18 18 18 18 17 17 17 17 17 17 17 17 16 16
15 15 15 15 17 17 18 19 20 19 19 19 19 19 19 19 20 20 20 20 19 19 19 19 19 19 19 19 19 19 18 18 18 18 17 17 17 17 17 17 17 17 16 16
15 15 15 15 16 17 18 19 19 19 19 19 19 19 19 20 19 19 20 21 21 20 20 20 20 19 19 19 19 19 18 18 18 18 18 17 17 17 17 17 16 16 16 16
15 15 15 14 16 16 18 20 20 19 18 19 19 18 19 19 17 18 20 21 21 21 20 20 20 19 19 19 19 19 18 18 18 18 18 17 17 17 17 17 16 16 16 16
15 14 14 15 15 16 18 19 19 18 18 20 20 20 20 19 19 20 20 20 21 20 20 20 20 19 19 19 19 19 18 18 18 18 18 17 17 17 17 16 16 16 16 16
15 14 14 14 15 16 18 18 18 18 20 20 20 20 20 20 20 20 20 20 20 20 20 20 19 19 19 19 19 19 18 18 18 18 17 17 17 17 16 16 16 16 16 16
14 15 14 15 16 17 19 19 20 20 20 20 20 20 21 20 20 20 20 20 20 20 20 20 19 19 19 19 19 18 18 18 18 18 17 17 17 17 16 16 16 16 16 15
14 14 14 15 16 17 19 20 20 20 20 20 21 20 21 20 20 19 19 19 19 19 19 19 19 19 19 18 18 18 18 18 18 17 17 17 17 16 16 16 16 16 15 15
14 14 14 14 15 17 18 19 19 20 20 20 20 20 20 20 19 19 19 19 19 19 19 19 19 18 18 18 18 18 18 18 18 17 17 17 16 16 16 16 16 15 15 15
13 14 14 14 16 15 17 18 19 19 19 20 19 19 19 20 19 19 19 19 18 18 18 18 18 18 18 18 18 18 18 18 17 17 17 17 16 16 16 16 15 15 15 15
Wind_Speed
1 3 3 6 7 6 3 2 3 4 4 5 6 6 8 8 9 10 9 9 9 9 6 7 8 9 9 8 8 8 7 6 6 4 4 4 3 2 3 4 7 8 8 8
2 4 9 6 5 4 3 1 2 2 1 4 5 6 7 9 11 13 14 13 11 9 7 7 8 8 9 9 7 7 7 7 6 4 4 3 3 2 2 3 6 7 8 7
6 6 6 5 4 2 1 3 3 2 2 2 2 3 3 5 5 8 11 11 12 13 12 10 9 8 9 9 9 8 7 7 6 6 5 4 4 4 3 3 3 4 7 7
4 5 4 4 3 3 2 3 2 2 2 2 2 3 6 6 7 8 11 11 12 13 12 11 10 9 10 9 9 9 8 7 7 7 7 7 5 3 2 1 1 3 5 6
4 3 3 4 4 4 4 2 1 2 2 1 1 2 6 4 8 11 12 13 13 13 14 13 12 11 9 9 9 8 8 7 7 7 8 7 5 3 2 2 3 3 4 5
5 3 4 4 3 3 3 4 5 5 4 2 5 5 6 6 11 12 13 14 14 13 13 12 11 9 8 9 9 9 9 7 7 7 7 8 7 5 4 3 3 2 2 3
2 3 2 3 3 2 5 5 3 4 2 5 4 4 8 8 10 14 15 15 14 13 12 12 11 10 10 11 10 9 9 8 7 7 7 7 7 7 6 5 4 3 2 1
3 4 4 4 6 5 4 7 5 4 4 4 3 4 6 6 6 8 10 12 13 14 12 12 13 12 12 12 11 10 10 8 7 7 6 6 6 5 4 5 5 4 3 2
5 5 3 4 4 8 5 4 6 4 2 2 4 4 5 3 3 5 8 10 13 14 14 14 13 12 12 12 11 11 10 8 8 7 6 6 6 5 5 5 4 4 3 2
6 3 3 3 3 2 6 6 5 4 2 2 4 4 3 3 2 6 8 10 12 13 14 13 12 12 12 11 10 11 11 9 7 8 7 6 6 6 6 5 5 4 3 3
4 4 2 1 5 6 3 3 4 4 4 3 2 6 5 6 6 7 9 10 12 14 14 13 12 12 11 10 10 10 9 8 8 8 7 7 6 5 6 5 5 5 4 5
4 5 2 5 5 5 6 6 6 5 3 4 3 6 7 4 5 7 8 9 9 11 12 12 12 11 10 11 11 10 10 9 9 8 7 7 6 6 5 5 4 4 5 5
6 6 3 3 4 1 3 5 6 6 4 4 4 6 5 2 3 5 7 8 9 10 11 11 11 12 12 12 11 11 10 10 8 8 8 7 6 6 6 5 4 4 5 5
6 5 6 8 6 5 4 5 6 6 4 5 6 7 6 4 4 4 6 8 10 11 12 12 12 12 12 12 12 11 10 10 9 9 9 8 7 7 6 6 5 5 5 6
5 4 5 6 6 5 6 8 8 7 8 8 8 8 8 8 8 6 6 7 9 10 11 13 14 13 12 12 11 11 11 10 10 10 9 8 7 7 6 6 5 5 5 6
3 4 2 2 4 4 5 8 9 9 8 8 7 8 8 6 5 5 6 7 9 11 12 13 14 14 14 14 13 12 11 11 10 10 9 8 7 7 7 6 6 5 5 5
2 4 3 3 3 2 5 8 9 7 7 8 9 10 5 4 6 8 9 9 10 12 12 13 13 14 15 15 14 14 12 11 11 10 9 9 8 8 7 7 7 6 6 5
5 4 3 2 1 4 8 5 6 7 8 8 7 7 7 8 7 6 8 10 9 10 11 12 12 12 12 12 12 12 11 12 11 10 9 9 9 8 7 7 7 6 5 6
7 7 4 4 3 5 7 4 4 4 6 6 7 6 6 6 2 2 5 8 10 11 10 10 10 11 12 12 12 12 12 11 11 11 10 10 10 9 8 8 7 6 5 5
4 6 5 4 4 6 7 5 1 3 3 5 5 7 7 6 4 5 5 6 7 8 8 8 8 8 11 11 12 13 12 11 12 12 11 10 10 10 9 9 7 5 5 5
4 4 5 5 5 7 7 4 2 3 6 5 4 6 7 7 8 6 4 5 7 7 7 8 9 9 10 11 12 12 11 12 11 10 9 9 9 9 9 7 6 6 5 5
6 5 5 5 5 7 4 2 4 5 4 2 1 3 5 5 4 4 5 5 7 7 7 9 9 8 8 10 12 11 11 10 9 9 9 8 8 8 7 8 6 6 7 6
5 7 6 7 7 5 3 4 4 3 2 2 1 2 5 6 5 5 5 5 6 8 8 8 9 8 7 9 11 11 9 9 9 9 8 8 8 7 7 8 8 6 6 5
3 2 3 2 4 4 3 1 1 1 1 2 3 4 6 7 6 6 6 5 6 6 7 7 9 9 8 7 8 9 8 10 11 10 9 8 8 6 6 6 6 6 6 6
4 2 2 2 3 3 2 1 1 1 2 2 2 3 6 8 7 6 6 6 6 6 6 7 9 9 8 8 7 7 9 11 11 10 9 8 7 7 6 5 4 5 5 7
4 5 5 5 6 4 5 5 2 1 1 2 4 4 4 6 7 6 6 6 6 6 6 7 7 8 8 8 7 7 8 10 11 9 8 7 6 6 6 6 4 4 3 5
Wind_Direction
165 97 211 219 202 201 217 232 258 242 212 173 193 204 197 187 175 176 181 181 176 179 180 156 152 143 134 135 134 134 128 126 118 110 105 97 82 62 52 57 69 76 80 84
57 242 231 217 217 205 217 231 289 301 232 171 195 220 204 193 191 187 185 185 181 174 165 157 153 150 147 148 146 140 139 136 131 131 131 129 121 95 75 53 57 67 75 81
196 232 211 198 206 180 233 204 221 217 1 23 118 303 242 224 201 192 191 189 180 176 172 169 164 162 156 153 156 153 148 138 136 130 113 94 71 53 45 45 39 44 69 79
229 238 191 169 186 158 242 254 204 166 119 263 163 245 262 217 207 199 194 190 188 183 176 173 171 171 170 165 158 148 147 139 139 132 128 130 129 134 168 144 81 50 63 73
242 203 176 187 209 171 201 222 103 157 144 304 256 203 271 194 206 212 202 196 192 187 180 176 176 176 172 161 150 151 146 141 142 139 138 134 136 151 142 102 89 62 44 59
236 235 187 188 175 155 145 57 38 44 72 293 233 195 263 215 209 206 203 199 195 188 183 179 175 167 159 151 148 151 149 148 147 142 142 144 149 147 135 128 119 87 52 38
286 271 213 143 111 68 90 84 36 1 2 257 246 204 247 234 211 201 197 197 191 183 179 176 172 165 159 154 152 155 153 154 154 148 152 157 158 157 158 160 158 145 117 82
198 252 225 178 163 172 164 141 157 197 229 277 293 232 262 261 207 189 186 181 177 177 179 179 177 171 164 160 157 158 160 161 159 157 165 165 160 157 160 164 163 163 165 169
187 239 241 195 163 146 148 172 171 151 252 266 281 285 315 8 98 141 156 168 177 180 180 180 174 170 166 166 165 165 165 167 166 165 165 168 166 159 160 160 156 161 166 154
168 207 236 190 113 135 156 155 108 127 175 270 294 280 253 253 200 168 172 178 181 180 180 178 173 171 169 172 167 167 168 173 171 167 169 170 168 165 159 150 155 165 165 137
152 158 248 150 182 185 145 142 131 142 164 169 268 278 241 220 207 188 189 189 184 180 180 177 174 174 170 170 167 169 168 164 165 166 164 157 164 161 151 151 158 159 155 150
150 134 192 239 249 191 167 176 156 158 210 178 187 268 274 227 203 189 186 187 182 182 180 175 174 171 168 173 172 172 169 168 169 164 157 157 159 153 150 154 156 155 156 155
139 123 116 335 328 264 192 189 169 148 142 171 184 261 296 244 193 189 179 180 179 177 178 174 174 175 176 178 176 174 172 172 166 158 156 156 158 159 163 163 155 153 150 146
129 134 168 194 215 200 213 215 177 153 175 208 217 242 275 253 217 197 184 179 178 180 179 176 180 183 180 179 176 174 174 171 164 159 162 165 170 173 172 166 155 151 144 144
121 163 197 220 227 200 217 224 205 194 194 198 225 231 246 233 217 203 193 177 171 178 183 184 184 183 179 180 178 175 173 168 164 161 167 176 174 170 161 156 154 148 140 144
111 160 178 265 251 235 246 237 219 213 205 209 225 249 242 228 203 194 194 186 179 184 188 188 186 183 182 182 179 175 174 171 164 166 174 174 166 165 163 160 153 145 141 136
160 136 138 249 290 352 260 229 213 211 207 194 218 234 216 196 193 194 191 186 188 188 187 186 188 187 185 183 179 179 177 169 166 171 172 170 167 167 169 161 151 152 152 141
167 144 150 188 49 237 247 241 199 205 227 210 205 212 196 199 203 199 190 185 190 189 188 187 186 184 184 179 175 171 167 167 168 171 172 172 168 170 167 157 159 161 154 151
176 155 150 159 199 268 286 262 176 185 245 220 205 220 207 187 150 279 218 193 190 187 185 186 183 175 170 171 169 161 165 167 169 176 178 178 173 170 166 166 169 167 155 157
146 137 143 153 176 230 248 267 228 113 259 253 198 204 194 156 165 239 222 189 184 177 170 167 163 155 161 168 162 159 166 169 179 184 182 176 173 170 173 177 173 163 157 164
147 135 159 176 203 249 253 261 75 143 242 270 211 189 177 183 198 205 183 171 168 161 159 156 152 157 165 161 156 161 166 179 185 179 171 168 171 173 174 171 164 154 153 151
178 168 178 168 193 240 256 157 174 220 256 272 228 174 165 168 154 146 147 150 148 143 143 148 149 154 158 157 156 163 176 183 170 160 161 166 169 172 167 157 160 154 151 151
193 184 179 189 213 241 231 214 223 194 205 231 192 183 147 135 128 127 132 133 143 148 149 148 145 142 146 156 159 165 178 167 155 154 161 163 164 167 162 160 161 153 154 159
266 167 145 204 260 263 269 276 313 193 204 223 175 151 139 132 130 126 131 131 131 137 144 142 137 139 147 156 157 163 161 155 153 158 164 162 159 155 153 157 160 160 166 170
225 168 146 211 271 329 316 268 219 16 46 85 81 116 132 127 123 128 136 136 134 128 131 137 142 146 151 152 150 152 153 151 153 159 161 159 154 153 147 145 155 166 178 180
210 182 171 210 223 210 251 254 224 145 180 157 132 105 107 126 127 123 132 134 130 128 128 132 137 142 146 144 144 148 150 153 153 155 156 157 156 154 149 141 114 72 105 149
Height
1517 1522 1526 1523 1521 1522 1523 1526 1527 1522 1516 1519 1523 1524 1523 1523 1525 1527 1529 1530 1532 1535 1538 1540 1542 1544 1546 1548 1549 1550 1551 1552 1553 1554 1554 1555 1555 1556 1557 1557 1557 1557 1557 1558
1521 1523 1517 1515 1516 1518 1521 1525 1526 1520 1515 1518 1522 1522 1520 1520 1521 1523 1525 1528 1530 1533 1536 1539 1541 1543 1545 1547 1549 1550 1551 1552 1553 1554 1555 1555 1556 1557 1557 1558 1558 1558 1558 1558
1521 1516 1511 1513 1516 1518 1520 1523 1524 1523 1519 1518 1523 1527 1523 1520 1520 1522 1523 1525 1528 1530 1533 1537 1540 1542 1544 1546 1548 1550 1551 1552 1553 1554 1555 1556 1556 1557 1558 1558 1559 1559 1559 1559
1515 1510 1510 1513 1515 1516 1524 1516 1516 1519 1527 1532 1527 1541 1526 1520 1519 1519 1521 1523 1525 1528 1531 1534 1538 1541 1543 1545 1547 1549 1551 1552 1553 1554 1555 1556 1557 1557 1558 1559 1559 1560 1560 1560
1514 1509 1510 1513 1512 1513 1517 1513 1515 1518 1525 1532 1529 1536 1529 1520 1520 1517 1517 1519 1522 1525 1528 1532 1535 1539 1542 1544 1546 1549 1551 1552 1553 1555 1555 1556 1557 1558 1559 1559 1560 1560 1561 1561
1509 1506 1506 1508 1507 1509 1511 1515 1519 1525 1531 1541 1530 1534 1531 1520 1513 1510 1512 1515 1518 1522 1526 1530 1534 1537 1540 1543 1545 1548 1550 1552 1553 1554 1556 1557 1558 1558 1559 1560 1560 1561 1561 1562
1512 1507 1505 1505 1510 1511 1514 1529 1543 1544 1548 1543 1525 1528 1523 1506 1501 1502 1505 1509 1514 1519 1523 1527 1531 1535 1538 1541 1544 1547 1549 1551 1553 1554 1556 1557 1558 1559 1560 1560 1561 1562 1562 1562
1520 1520 1506 1504 1508 1514 1517 1526 1543 1550 1549 1540 1525 1527 1512 1498 1496 1498 1502 1506 1511 1516 1520 1524 1528 1532 1535 1539 1542 1545 1548 1550 1552 1554 1556 1557 1558 1559 1560 1561 1562 1562 1563 1563
1518 1517 1503 1501 1502 1507 1516 1523 1523 1535 1535 1539 1531 1519 1506 1497 1498 1499 1502 1505 1509 1513 1517 1521 1525 1529 1533 1537 1541 1544 1546 1549 1551 1554 1555 1557 1558 1560 1561 1561 1562 1563 1563 1564
1506 1514 1505 1501 1502 1504 1508 1514 1527 1534 1542 1544 1533 1523 1518 1506 1502 1501 1502 1504 1507 1510 1514 1518 1522 1527 1531 1535 1539 1542 1545 1548 1551 1553 1555 1557 1558 1560 1561 1562 1563 1563 1564 1565
1501 1512 1510 1505 1507 1510 1511 1514 1521 1530 1534 1542 1542 1530 1503 1501 1499 1499 1500 1501 1504 1508 1511 1515 1520 1525 1529 1533 1537 1541 1544 1547 1550 1552 1554 1556 1558 1560 1561 1562 1563 1564 1565 1565
1499 1510 1516 1509 1501 1499 1504 1509 1517 1531 1533 1533 1537 1528 1496 1496 1495 1496 1498 1500 1503 1506 1509 1513 1518 1522 1527 1531 1535 1538 1542 1545 1548 1551 1554 1556 1558 1560 1561 1562 1563 1564 1565 1566
1497 1509 1521 1519 1514 1505 1504 1504 1509 1517 1526 1532 1535 1524 1496 1495 1495 1495 1496 1498 1501 1504 1508 1511 1516 1519 1524 1528 1532 1536 1540 1543 1547 1550 1552 1555 1557 1559 1561 1562 1563 1564 1565 1566
1492 1505 1514 1520 1514 1506 1505 1503 1504 1513 1524 1526 1522 1513 1500 1496 1494 1494 1495 1496 1499 1502 1505 1509 1513 1517 1521 1525 1529 1533 1537 1541 1545 1548 1551 1554 1556 1558 1560 1562 1563 1564 1566 1567
1491 1502 1502 1501 1497 1497 1498 1499 1500 1505 1509 1515 1510 1505 1498 1493 1492 1492 1493 1495 1497 1500 1503 1506 1510 1514 1518 1523 1527 1531 1535 1539 1543 1546 1549 1553 1555 1558 1560 1561 1563 1564 1566 1567
1491 1498 1499 1499 1494 1494 1496 1493 1494 1496 1498 1501 1500 1498 1490 1488 1489 1491 1492 1493 1495 1497 1500 1503 1506 1510 1515 1519 1524 1528 1533 1537 1541 1544 1548 1551 1554 1556 1558 1560 1562 1564 1565 1566
1493 1497 1503 1507 1498 1496 1501 1491 1489 1491 1489 1491 1496 1491 1486 1487 1487 1488 1489 1490 1492 1494 1496 1499 1503 1506 1511 1516 1521 1525 1530 1534 1539 1542 1546 1549 1552 1555 1557 1559 1561 1563 1565 1566
1492 1497 1504 1507 1504 1511 1494 1480 1480 1483 1483 1481 1482 1481 1482 1483 1483 1484 1485 1486 1489 1491 1494 1496 1499 1503 1508 1513 1518 1523 1528 1532 1536 1540 1543 1547 1550 1553 1556 1558 1560 1562 1564 1565
1484 1492 1503 1508 1509 1502 1487 1478 1478 1482 1483 1477 1478 1478 1478 1480 1481 1483 1483 1484 1486 1488 1491 1493 1497 1501 1505 1510 1516 1521 1525 1529 1533 1537 1540 1544 1547 1550 1553 1556 1558 1560 1562 1564
1482 1486 1498 1505 1507 1507 1488 1475 1473 1478 1484 1474 1473 1474 1475 1478 1485 1483 1481 1482 1484 1487 1489 1492 1495 1499 1504 1509 1513 1518 1522 1527 1530 1534 1537 1541 1545 1548 1550 1553 1556 1558 1560 1562
1487 1491 1496 1501 1502 1494 1478 1473 1474 1489 1485 1473 1471 1471 1472 1474 1476 1477 1479 1480 1482 1485 1488 1491 1494 1498 1502 1507 1511 1516 1520 1523 1527 1531 1535 1538 1542 1545 1548 1551 1554 1556 1558 1560
1485 1490 1493 1497 1500 1494 1472 1473 1477 1477 1471 1471 1470 1469 1470 1471 1473 1475 1476 1478 1481 1484 1487 1490 1493 1497 1501 1505 1510 1514 1518 1522 1526 1529 1533 1536 1539 1543 1546 1549 1551 1553 1556 1557
1478 1478 1481 1484 1483 1472 1470 1470 1470 1470 1470 1469 1469 1469 1469 1471 1472 1474 1476 1478 1480 1483 1486 1489 1493 1496 1500 1504 1508 1511 1515 1520 1523 1527 1530 1534 1537 1540 1543 1546 1548 1551 1553 1554
1474 1472 1475 1476 1473 1469 1469 1468 1468 1468 1468 1468 1468 1469 1469 1470 1472 1474 1476 1478 1481 1483 1486 1489 1492 1495 1499 1502 1506 1510 1514 1518 1521 1525 1528 1532 1535 1538 1541 1543 1546 1548 1549 1551
1471 1471 1473 1474 1471 1469 1467 1467 1467 1467 1468 1468 1468 1468 1469 1470 1472 1474 1476 1478 1481 1483 1486 1489 1491 1494 1498 1502 1505 1509 1512 1516 1519 1523 1526 1529 1532 1535 1538 1540 1542 1545 1547 1549
1467 1468 1471 1472 1468 1469 1468 1467 1467 1467 1467 1468 1468 1469 1470 1471 1472 1474 1476 1478 1481 1483 1486 1489 1491 1494 1498 1501 1504 1508 1511 1514 1517 1520 1523 1527 1529 1533 1535 1538 1540 1542 1544 1546